Regional Weather Roundup
Issued by NWS

Home | Current Version | Previous Version | Text Only | Print | Product List | Glossary On
Versions: 1 2 3 4 5 6 7 8 9 10 11 12 13 14 15 16 17 18 19 20 21 22 23 24 25 26 27 28 29 30 31 32 33 34 35 36 37 38 39 40 41 42 43 44 45 46 47 48 49 50
000
ASUS44 KBMX 031710
RWRAL

ALABAMA REGIONAL WEATHER ROUNDUP
NATIONAL WEATHER SERVICE BIRMINGHAM AL
1200 PM CDT SUN MAY 03 2015

NOTE: "FAIR" INDICATES FEW OR NO CLOUDS BELOW 12,000 FEET
WITH NO SIGNIFICANT WEATHER AND/OR OBSTRUCTIONS TO VISIBILITY.

THE REMARK "TC" DENOTES TEMPERATURE IN DEGREES CELSIUS.

ALZ001>011-014-016>018-020-031800-
NORTH ALABAMA

CITY           SKY/WX    TMP DP  RH WIND       PRES   REMARKS
MUSCLE SHOALS  SUNNY     76  48  37 VRB3      30.16F
HUNTSVILLE     MOSUNNY   78  46  32 S5        30.16F
DECATUR        SUNNY     74  53  48 S7        30.16F
HALEYVILLE       N/A     74  49  41 MISG      30.19F
GADSDEN        SUNNY    N/A N/A N/A W12       30.16F
$$

ALZ012-013-022-023-030>036-040>044-031800-
WEST CENTRAL ALABAMA

CITY           SKY/WX    TMP DP  RH WIND       PRES   REMARKS
TUSCALOOSA     SUNNY     79  52  38 SW8       30.16F
$$

ALZ015-024>027-033>036-040>044-031800-
CENTRAL ALABAMA

CITY           SKY/WX    TMP DP  RH WIND       PRES   REMARKS
BIRMINGHAM     MOSUNNY   77  45  32 VRB7      30.19F
MONTGOMERY     SUNNY     79  51  37 W5        30.17F
SHELBY CO ARPT SUNNY    N/A N/A N/A S6        30.17F
MAXWELL AFB    MOSUNNY   79  51  37 S6        30.17S
GREENVILLE     FAIR      79  49  34 VRB6      30.17S
$$

ALZ019-021-028-029-037-038-045>048-031800-
EAST CENTRAL ALABAMA

CITY           SKY/WX    TMP DP  RH WIND       PRES   REMARKS
ANNISTON       SUNNY     76  48  37 VRB3      30.18F
ALEXANDER CITY SUNNY     76  42  29 W6        30.19S
AUBURN         SUNNY    N/A N/A N/A MISG        N/A
$$

ALZ051>064-031800-
SOUTHWEST ALABAMA

CITY           SKY/WX    TMP DP  RH WIND       PRES   REMARKS
MOBILE         MOSUNNY   78  49  35 SE10G20   30.16S
BROOKLEY FIELD SUNNY     76  57  51 S10       30.17F
EVERGREEN      SUNNY     79  51  37 VRB5      30.17F
$$

ALZ049-050-065>069-031800-
SOUTHEAST ALABAMA

CITY           SKY/WX    TMP DP  RH WIND       PRES   REMARKS
DOTHAN         MOSUNNY   78  49  35 SW5       30.21S
OZARK          MOSUNNY   79  48  34 VRB6      30.17S
TROY           SUNNY     78  50  37 CALM      30.18F
EUFAULA        FAIR      81  49  32 VRB3      30.17F
$$


USA.gov is the U.S. government's official web portal to all federal, state and local government web resources and services.